Location: Elende
(51.4317°N, 10.6316°E)
Time: 16:02:50
(UTC+00:00)

USA 238 DEB - Pass Details

Date: 18 September 2020
Orbit: 1006 x 1206 km, 63.4° (Epoch: 15 October)

Event Time Altitude Azimuth Distance (km) Brightness Sun altitude
Rises 19:31:43 0° 315° (NW) 3,935 8.1 -19.8°
Reaches altitude 10° 19:34:22 10° 312° (NW) 3,002 7.2 -20.1°
Maximum altitude 19:41:27 64° 233° (SW) 1,275 4.1 -21.1°
Enters shadow 19:45:39 27° 162° (SSE) 2,076 4.8 -21.6°
